Time,TemperatureF,DewpointF,PressureIn,WindDirection,WindDirectionDegrees,WindSpeedMPH,WindSpeedGustMPH,Humidity,HourlyPrecipIn,Conditions,Clouds,dailyrainin,SoftwareType,DateUTC
2013-01-25 00:01:00,14.2,2.5,30.58,North,6,0.0,0.0,59,0.00,,,0.00,Wunderground v.1.15,2013-01-25 05:01:00,
2013-01-25 00:05:00,14.2,2.8,30.58,North,6,0.0,0.0,60,0.00,,,0.00,Wunderground v.1.15,2013-01-25 05:05:00,
2013-01-25 00:15:00,14.3,2.9,30.58,North,6,0.0,0.0,60,0.00,,,0.00,Wunderground v.1.15,2013-01-25 05:15:00,
2013-01-25 00:20:00,14.3,2.9,30.58,North,6,0.0,0.0,60,0.00,,,0.00,Wunderground v.1.15,2013-01-25 05:20:00,
2013-01-25 00:25:00,14.4,3.0,30.57,North,6,0.0,0.0,60,0.00,,,0.00,Wunderground v.1.15,2013-01-25 05:25:00,
2013-01-25 00:30:00,14.4,3.4,30.57,North,6,0.0,0.0,61,0.00,,,0.00,Wunderground v.1.15,2013-01-25 05:30:00,
2013-01-25 00:40:00,14.4,3.4,30.57,North,2,0.0,0.0,61,0.00,,,0.00,Wunderground v.1.15,2013-01-25 05:40:00,
2013-01-25 00:50:00,14.3,3.6,30.57,North,3,0.0,0.0,62,0.00,,,0.00,Wunderground v.1.15,2013-01-25 05:50:00,
2013-01-25 00:55:00,14.3,4.0,30.56,North,3,0.0,0.0,63,0.00,,,0.00,Wunderground v.1.15,2013-01-25 05:55:00,
2013-01-25 01:00:00,14.3,4.3,30.56,North,2,0.0,0.0,64,0.00,,,0.00,Wunderground v.1.15,2013-01-25 06:00:00,
2013-01-25 01:10:00,14.3,4.7,30.55,NE,34,0.0,1.0,65,0.00,,,0.00,Wunderground v.1.15,2013-01-25 06:10:00,
2013-01-25 01:20:00,14.3,5.0,30.55,NE,39,0.0,0.0,66,0.00,,,0.00,Wunderground v.1.15,2013-01-25 06:20:00,
2013-01-25 01:30:00,14.2,5.6,30.55,NE,39,0.0,0.0,68,0.00,,,0.00,Wunderground v.1.15,2013-01-25 06:30:00,
2013-01-25 01:40:00,14.3,6.0,30.55,NE,39,0.0,0.0,69,0.00,,,0.00,Wunderground v.1.15,2013-01-25 06:40:00,
2013-01-25 01:50:00,14.4,6.1,30.55,NE,39,0.0,0.0,69,0.00,,,0.00,Wunderground v.1.15,2013-01-25 06:50:00,
2013-01-25 02:00:00,14.5,6.2,30.54,NNE,18,0.0,0.0,69,0.00,,,0.00,Wunderground v.1.15,2013-01-25 07:00:00,
2013-01-25 02:10:00,14.7,6.4,30.55,NNE,26,0.0,0.0,69,0.00,,,0.00,Wunderground v.1.15,2013-01-25 07:10:00,
2013-01-25 02:20:00,14.9,6.9,30.54,NNE,16,0.0,0.0,70,0.00,,,0.00,Wunderground v.1.15,2013-01-25 07:20:00,
2013-01-25 02:30:00,15.0,7.0,30.53,NNW,346,0.0,1.0,70,0.00,,,0.00,Wunderground v.1.15,2013-01-25 07:30:00,
2013-01-25 02:35:00,15.0,7.0,30.53,North,8,0.0,1.0,70,0.00,,,0.00,Wunderground v.1.15,2013-01-25 07:35:00,
2013-01-25 02:45:00,15.0,7.6,30.53,NNE,32,0.0,1.0,72,0.00,,,0.00,Wunderground v.1.15,2013-01-25 07:45:00,
2013-01-25 02:55:00,14.9,7.8,30.53,NNE,32,0.0,0.0,73,0.00,,,0.00,Wunderground v.1.15,2013-01-25 07:55:00,
2013-01-25 03:00:00,14.9,7.8,30.52,NNE,32,0.0,0.0,73,0.00,,,0.00,Wunderground v.1.15,2013-01-25 08:00:00,
2013-01-25 03:10:00,15.0,8.2,30.52,NNE,32,0.0,0.0,74,0.00,,,0.00,Wunderground v.1.15,2013-01-25 08:10:00,
2013-01-25 03:20:00,15.1,8.6,30.50,NNE,32,0.0,0.0,75,0.00,,,0.00,Wunderground v.1.15,2013-01-25 08:20:00,
2013-01-25 03:30:00,15.3,9.1,30.49,NNE,32,0.0,0.0,76,0.00,,,0.00,Wunderground v.1.15,2013-01-25 08:30:00,
2013-01-25 03:40:00,15.5,8.7,30.49,NE,34,0.0,0.0,74,0.00,,,0.00,Wunderground v.1.15,2013-01-25 08:40:00,
2013-01-25 03:50:00,15.8,8.7,30.49,NE,34,0.0,0.0,73,0.00,,,0.00,Wunderground v.1.15,2013-01-25 08:50:00,
2013-01-25 04:00:00,16.6,7.5,30.48,South,177,1.0,1.0,67,0.00,,,0.00,Wunderground v.1.15,2013-01-25 09:00:00,
2013-01-25 04:10:00,17.3,6.8,30.47,SW,218,1.0,1.0,63,0.00,,,0.00,Wunderground v.1.15,2013-01-25 09:10:00,
2013-01-25 04:20:00,17.6,5.7,30.46,SW,217,2.0,2.0,59,0.00,,,0.00,Wunderground v.1.15,2013-01-25 09:20:00,
2013-01-25 04:30:00,17.8,6.6,30.45,SSW,207,0.0,2.0,61,0.00,,,0.00,Wunderground v.1.15,2013-01-25 09:30:00,
2013-01-25 04:40:00,17.8,6.2,30.44,SW,215,1.0,1.0,60,0.00,,,0.00,Wunderground v.1.15,2013-01-25 09:40:00,
2013-01-25 04:50:00,17.9,6.7,30.45,SW,214,1.0,5.0,61,0.00,,,0.00,Wunderground v.1.15,2013-01-25 09:50:00,
2013-01-25 05:00:00,18.0,7.5,30.43,SSW,193,1.0,1.0,63,0.00,,,0.00,Wunderground v.1.15,2013-01-25 10:00:00,
2013-01-25 05:10:00,18.1,8.0,30.42,ESE,120,1.0,1.0,64,0.00,,,0.00,Wunderground v.1.15,2013-01-25 10:10:00,
2013-01-25 05:20:00,18.1,8.0,30.42,SSE,153,0.0,2.0,64,0.00,,,0.00,Wunderground v.1.15,2013-01-25 10:20:00,
2013-01-25 05:30:00,18.2,7.0,30.41,East,81,1.0,1.0,61,0.00,,,0.00,Wunderground v.1.15,2013-01-25 10:30:00,
2013-01-25 05:35:00,18.2,7.7,30.41,SE,131,1.0,1.0,63,0.00,,,0.00,Wunderground v.1.15,2013-01-25 10:35:00,
2013-01-25 05:45:00,18.2,7.0,30.40,East,79,0.0,1.0,61,0.00,,,0.00,Wunderground v.1.15,2013-01-25 10:45:00,
2013-01-25 05:55:00,18.1,7.3,30.40,SW,220,1.0,1.0,62,0.00,,,0.00,Wunderground v.1.15,2013-01-25 10:55:00,
2013-01-25 06:00:00,18.2,7.7,30.39,ESE,119,1.0,1.0,63,0.00,,,0.00,Wunderground v.1.15,2013-01-25 11:00:00,
2013-01-25 06:10:00,18.2,8.7,30.38,NE,54,1.0,1.0,66,0.00,,,0.00,Wunderground v.1.15,2013-01-25 11:10:00,
2013-01-25 06:15:00,18.3,8.8,30.38,SE,130,1.0,4.0,66,0.00,,,0.00,Wunderground v.1.15,2013-01-25 11:15:00,
2013-01-25 06:25:00,18.3,8.5,30.37,SW,214,1.0,1.0,65,0.00,,,0.00,Wunderground v.1.15,2013-01-25 11:25:00,
2013-01-25 06:35:00,18.3,8.5,30.37,East,84,1.0,1.0,65,0.00,,,0.00,Wunderground v.1.15,2013-01-25 11:35:00,
2013-01-25 06:45:00,18.3,9.5,30.37,SW,222,2.0,2.0,68,0.00,,,0.00,Wunderground v.1.15,2013-01-25 11:45:00,
2013-01-25 06:55:00,18.0,9.9,30.36,SSW,199,1.0,2.0,70,0.00,,,0.00,Wunderground v.1.15,2013-01-25 11:55:00,
2013-01-25 07:00:00,18.0,10.2,30.36,ESE,121,1.0,1.0,71,0.00,,,0.00,Wunderground v.1.15,2013-01-25 12:00:00,
2013-01-25 07:10:00,18.1,10.3,30.36,SW,217,1.0,2.0,71,0.00,,,0.00,Wunderground v.1.15,2013-01-25 12:10:00,
2013-01-25 07:20:00,17.9,11.0,30.36,WSW,241,1.0,1.0,74,0.00,,,0.00,Wunderground v.1.15,2013-01-25 12:20:00,
2013-01-25 07:25:00,17.8,11.5,30.36,SW,220,1.0,1.0,76,0.00,,,0.00,Wunderground v.1.15,2013-01-25 12:25:00,
2013-01-25 07:35:00,17.7,12.0,30.35,ESE,112,0.0,1.0,78,0.00,,,0.00,Wunderground v.1.15,2013-01-25 12:35:00,
2013-01-25 07:45:00,17.7,12.0,30.34,ESE,109,0.0,0.0,78,0.00,,,0.00,Wunderground v.1.15,2013-01-25 12:45:00,
2013-01-25 07:55:00,17.8,11.8,30.34,East,98,1.0,2.0,77,0.00,,,0.00,Wunderground v.1.15,2013-01-25 12:55:00,
2013-01-25 08:00:00,17.8,11.8,30.33,ENE,71,1.0,3.0,77,0.00,,,0.00,Wunderground v.1.15,2013-01-25 13:00:00,
2013-01-25 08:10:00,18.0,12.0,30.32,ENE,72,1.0,1.0,77,0.00,,,0.00,Wunderground v.1.15,2013-01-25 13:10:00,
2013-01-25 08:20:00,18.2,11.9,30.32,South,182,1.0,1.0,76,0.00,,,0.00,Wunderground v.1.15,2013-01-25 13:20:00,
2013-01-25 08:25:00,18.3,11.7,30.32,ESE,122,1.0,1.0,75,0.00,,,0.00,Wunderground v.1.15,2013-01-25 13:25:00,
2013-01-25 08:35:00,18.5,11.9,30.30,SW,214,2.0,2.0,75,0.00,,,0.00,Wunderground v.1.15,2013-01-25 13:35:00,
2013-01-25 08:45:00,18.5,11.6,30.30,SE,137,2.0,4.0,74,0.00,,,0.00,Wunderground v.1.15,2013-01-25 13:45:00,
2013-01-25 08:50:00,18.5,11.3,30.30,SE,139,2.0,2.0,73,0.00,,,0.00,Wunderground v.1.15,2013-01-25 13:50:00,
2013-01-25 09:00:00,18.6,11.1,30.30,ESE,120,1.0,1.0,72,0.00,,,0.00,Wunderground v.1.15,2013-01-25 14:00:00,
2013-01-25 09:05:00,18.7,10.9,30.29,East,97,2.0,2.0,71,0.00,,,0.00,Wunderground v.1.15,2013-01-25 14:05:00,
2013-01-25 09:15:00,18.8,11.3,30.30,SE,125,1.0,2.0,72,0.00,,,0.00,Wunderground v.1.15,2013-01-25 14:15:00,
2013-01-25 09:20:00,18.9,11.4,30.29,SW,223,1.0,1.0,72,0.00,,,0.00,Wunderground v.1.15,2013-01-25 14:20:00,
2013-01-25 09:30:00,19.1,11.6,30.29,SSE,147,1.0,1.0,72,0.00,,,0.00,Wunderground v.1.15,2013-01-25 14:30:00,
2013-01-25 09:35:00,19.2,11.3,30.29,SSW,207,1.0,1.0,71,0.00,,,0.00,Wunderground v.1.15,2013-01-25 14:35:00,
2013-01-25 09:45:00,19.4,10.9,30.29,SE,141,2.0,2.0,69,0.00,,,0.00,Wunderground v.1.15,2013-01-25 14:45:00,
2013-01-25 09:50:00,19.4,11.2,30.29,SSE,158,2.0,2.0,70,0.00,,,0.00,Wunderground v.1.15,2013-01-25 14:50:00,
2013-01-25 10:00:00,19.0,11.8,30.28,ESE,103,2.0,3.0,73,0.00,,,0.00,Wunderground v.1.15,2013-01-25 15:00:00,
2013-01-25 10:05:00,18.6,12.6,30.27,ESE,115,2.0,3.0,77,0.00,,,0.00,Wunderground v.1.15,2013-01-25 15:05:00,
2013-01-25 10:15:00,18.5,13.4,30.27,East,101,1.0,3.0,80,0.00,,,0.00,Wunderground v.1.15,2013-01-25 15:15:00,
2013-01-25 10:25:00,18.6,13.7,30.27,NE,52,1.0,2.0,81,0.00,,,0.00,Wunderground v.1.15,2013-01-25 15:25:00,
2013-01-25 10:35:00,18.6,13.2,30.27,East,101,1.0,1.0,79,0.00,,,0.00,Wunderground v.1.15,2013-01-25 15:35:00,
2013-01-25 10:45:00,18.5,13.4,30.28,North,358,2.0,3.0,80,0.00,,,0.00,Wunderground v.1.15,2013-01-25 15:45:00,
2013-01-25 10:50:00,18.2,13.6,30.27,SSE,160,2.0,3.0,82,0.00,,,0.00,Wunderground v.1.15,2013-01-25 15:50:00,
2013-01-25 11:00:00,17.9,14.2,30.26,East,94,1.0,1.0,85,0.00,,,0.00,Wunderground v.1.15,2013-01-25 16:00:00,
2013-01-25 11:05:00,18.0,14.5,30.26,SW,221,1.0,1.0,86,0.00,,,0.00,Wunderground v.1.15,2013-01-25 16:05:00,
2013-01-25 11:15:00,17.9,14.2,30.26,SSW,203,3.0,3.0,85,0.00,,,0.00,Wunderground v.1.15,2013-01-25 16:15:00,
2013-01-25 11:20:00,17.9,13.9,30.25,SW,230,4.0,4.0,84,0.00,,,0.00,Wunderground v.1.15,2013-01-25 16:20:00,
2013-01-25 11:30:00,18.2,13.9,30.25,SSW,212,2.0,2.0,83,0.00,,,0.00,Wunderground v.1.15,2013-01-25 16:30:00,
2013-01-25 11:40:00,18.4,14.1,30.24,WSW,238,3.0,3.0,83,0.00,,,0.00,Wunderground v.1.15,2013-01-25 16:40:00,
2013-01-25 11:45:00,18.6,14.3,30.24,South,190,2.0,3.0,83,0.00,,,0.00,Wunderground v.1.15,2013-01-25 16:45:00,
2013-01-25 11:55:00,18.8,14.2,30.23,SW,229,2.0,3.0,82,0.00,,,0.00,Wunderground v.1.15,2013-01-25 16:55:00,
2013-01-25 12:00:00,19.2,14.6,30.23,South,190,2.0,2.0,82,0.00,,,0.00,Wunderground v.1.15,2013-01-25 17:00:00,
2013-01-25 12:10:00,19.7,14.8,30.22,South,176,2.0,3.0,81,0.00,,,0.00,Wunderground v.1.15,2013-01-25 17:10:00,
2013-01-25 12:15:00,19.7,14.5,30.22,South,184,2.0,3.0,80,0.00,,,0.00,Wunderground v.1.15,2013-01-25 17:15:00,
2013-01-25 12:25:00,20.2,15.3,30.21,WSW,243,1.0,3.0,81,0.00,,,0.00,Wunderground v.1.15,2013-01-25 17:25:00,
2013-01-25 12:35:00,20.7,15.5,30.20,SW,222,1.0,4.0,80,0.00,,,0.00,Wunderground v.1.15,2013-01-25 17:35:00,
2013-01-25 12:40:00,20.8,15.6,30.20,East,86,1.0,2.0,80,0.00,,,0.00,Wunderground v.1.15,2013-01-25 17:40:00,
2013-01-25 12:50:00,21.0,15.8,30.19,SSW,207,2.0,3.0,80,0.00,,,0.00,Wunderground v.1.15,2013-01-25 17:50:00,
2013-01-25 12:55:00,21.0,15.8,30.19,SSW,205,2.0,4.0,80,0.00,,,0.00,Wunderground v.1.15,2013-01-25 17:55:00,
2013-01-25 13:00:00,20.7,14.9,30.19,SW,219,3.0,3.0,78,0.00,,,0.00,Wunderground v.1.15,2013-01-25 18:00:00,
2013-01-25 13:05:00,21.0,15.5,30.18,SW,224,3.0,4.0,79,0.00,,,0.00,Wunderground v.1.15,2013-01-25 18:05:00,
2013-01-25 13:15:00,21.5,15.7,30.17,SE,131,2.0,2.0,78,0.00,,,0.00,Wunderground v.1.15,2013-01-25 18:15:00,
2013-01-25 13:20:00,21.2,15.4,30.17,SW,231,2.0,4.0,78,0.00,,,0.00,Wunderground v.1.15,2013-01-25 18:20:00,
2013-01-25 13:30:00,21.1,15.3,30.16,SSW,212,2.0,2.0,78,0.00,,,0.00,Wunderground v.1.15,2013-01-25 18:30:00,
2013-01-25 13:35:00,21.0,15.2,30.16,SW,220,2.0,3.0,78,0.00,,,0.00,Wunderground v.1.15,2013-01-25 18:35:00,
2013-01-25 13:45:00,21.1,15.0,30.15,SW,219,2.0,3.0,77,0.00,,,0.00,Wunderground v.1.15,2013-01-25 18:45:00,
2013-01-25 13:50:00,21.3,15.5,30.15,SSE,148,2.0,2.0,78,0.00,,,0.00,Wunderground v.1.15,2013-01-25 18:50:00,
2013-01-25 14:01:00,21.3,15.2,30.14,South,188,2.0,3.0,77,0.00,,,0.00,Wunderground v.1.15,2013-01-25 19:01:00,
2013-01-25 14:10:00,21.5,15.1,30.14,SSW,200,2.0,2.0,76,0.00,,,0.00,Wunderground v.1.15,2013-01-25 19:10:00,
2013-01-25 14:15:00,21.5,15.7,30.14,ENE,67,1.0,2.0,78,0.00,,,0.00,Wunderground v.1.15,2013-01-25 19:15:00,
2013-01-25 14:25:00,21.4,15.3,30.14,South,184,2.0,4.0,77,0.00,,,0.00,Wunderground v.1.15,2013-01-25 19:25:00,
2013-01-25 14:30:00,21.1,14.7,30.13,SSW,213,2.0,3.0,76,0.00,,,0.00,Wunderground v.1.15,2013-01-25 19:30:00,
2013-01-25 14:40:00,20.8,14.4,30.13,SW,233,2.0,2.0,76,0.00,,,0.00,Wunderground v.1.15,2013-01-25 19:40:00,
2013-01-25 14:50:00,20.9,15.1,30.13,ESE,122,1.0,2.0,78,0.00,,,0.00,Wunderground v.1.15,2013-01-25 19:50:00,
2013-01-25 14:55:00,20.7,14.9,30.12,ESE,123,1.0,2.0,78,0.00,,,0.00,Wunderground v.1.15,2013-01-25 19:55:00,
2013-01-25 15:00:00,20.6,14.8,30.13,SSW,200,2.0,3.0,78,0.00,,,0.00,Wunderground v.1.15,2013-01-25 20:00:00,
2013-01-25 15:10:00,20.8,15.3,30.12,SSW,207,1.0,1.0,79,0.00,,,0.00,Wunderground v.1.15,2013-01-25 20:10:00,
2013-01-25 15:20:00,21.1,15.3,30.12,SSW,211,1.0,1.0,78,0.00,,,0.00,Wunderground v.1.15,2013-01-25 20:20:00,
2013-01-25 15:30:00,20.9,14.8,30.11,SSW,203,2.0,4.0,77,0.00,,,0.00,Wunderground v.1.15,2013-01-25 20:30:00,
2013-01-25 15:40:00,20.4,14.0,30.12,SW,217,3.0,5.0,76,0.00,,,0.00,Wunderground v.1.15,2013-01-25 20:40:00,
2013-01-25 15:50:00,20.3,14.5,30.12,SSW,213,3.0,4.0,78,0.00,,,0.00,Wunderground v.1.15,2013-01-25 20:50:00,
2013-01-25 16:00:00,20.2,14.4,30.12,SSE,147,2.0,2.0,78,0.00,,,0.00,Wunderground v.1.15,2013-01-25 21:00:00,
2013-01-25 16:05:00,20.2,14.4,30.11,SSW,207,2.0,2.0,78,0.00,,,0.00,Wunderground v.1.15,2013-01-25 21:05:00,
2013-01-25 16:15:00,20.2,15.0,30.12,West,261,1.0,2.0,80,0.00,,,0.00,Wunderground v.1.15,2013-01-25 21:15:00,
2013-01-25 16:20:00,20.2,14.7,30.12,SW,219,1.0,3.0,79,0.00,,,0.00,Wunderground v.1.15,2013-01-25 21:20:00,
2013-01-25 16:30:00,20.0,14.8,30.11,SSW,206,2.0,2.0,80,0.00,,,0.00,Wunderground v.1.15,2013-01-25 21:30:00,
2013-01-25 16:40:00,20.1,14.9,30.11,SE,141,1.0,2.0,80,0.00,,,0.00,Wunderground v.1.15,2013-01-25 21:40:00,
2013-01-25 16:45:00,20.0,15.1,30.11,SSW,205,2.0,2.0,81,0.00,,,0.00,Wunderground v.1.15,2013-01-25 21:45:00,
2013-01-25 16:55:00,20.1,15.5,30.10,SSE,149,1.0,2.0,82,0.00,,,0.00,Wunderground v.1.15,2013-01-25 21:55:00,
2013-01-25 17:01:00,20.3,15.4,30.10,SW,215,1.0,1.0,81,0.00,,,0.00,Wunderground v.1.15,2013-01-25 22:01:00,
2013-01-25 17:10:00,20.1,15.2,30.11,SW,221,2.0,2.0,81,0.00,,,0.00,Wunderground v.1.15,2013-01-25 22:10:00,
2013-01-25 17:20:00,20.0,15.4,30.11,SW,227,2.0,2.0,82,0.00,,,0.00,Wunderground v.1.15,2013-01-25 22:20:00,
2013-01-25 17:30:00,20.0,15.4,30.11,SSW,195,2.0,2.0,82,0.00,,,0.00,Wunderground v.1.15,2013-01-25 22:30:00,
2013-01-25 17:40:00,19.8,15.5,30.10,SSW,208,2.0,2.0,83,0.00,,,0.00,Wunderground v.1.15,2013-01-25 22:40:00,
2013-01-25 17:45:00,19.8,15.5,30.11,SSW,210,1.0,2.0,83,0.00,,,0.00,Wunderground v.1.15,2013-01-25 22:45:00,
2013-01-25 17:55:00,19.7,15.6,30.10,SW,214,1.0,2.0,84,0.00,,,0.00,Wunderground v.1.15,2013-01-25 22:55:00,
2013-01-25 18:01:00,19.7,15.6,30.10,SW,226,1.0,1.0,84,0.00,,,0.00,Wunderground v.1.15,2013-01-25 23:01:00,
2013-01-25 18:10:00,19.7,15.6,30.11,SW,222,1.0,1.0,84,0.00,,,0.00,Wunderground v.1.15,2013-01-25 23:10:00,
2013-01-25 18:15:00,19.7,15.6,30.10,SSW,210,1.0,1.0,84,0.00,,,0.00,Wunderground v.1.15,2013-01-25 23:15:00,
2013-01-25 18:25:00,19.7,15.4,30.11,SW,216,1.0,2.0,83,0.00,,,0.00,Wunderground v.1.15,2013-01-25 23:25:00,
2013-01-25 18:30:00,19.8,15.5,30.11,SW,222,1.0,1.0,83,0.00,,,0.00,Wunderground v.1.15,2013-01-25 23:30:00,
2013-01-25 18:40:00,19.8,15.5,30.12,SSW,207,1.0,1.0,83,0.00,,,0.00,Wunderground v.1.15,2013-01-25 23:40:00,
2013-01-25 18:50:00,19.7,15.4,30.12,WSW,244,1.0,1.0,83,0.00,,,0.00,Wunderground v.1.15,2013-01-25 23:50:00,
2013-01-25 19:00:00,19.7,15.4,30.12,SW,233,1.0,1.0,83,0.00,,,0.00,Wunderground v.1.15,2013-01-26 00:00:00,
2013-01-25 19:05:00,19.7,15.4,30.12,WSW,241,1.0,1.0,83,0.00,,,0.00,Wunderground v.1.15,2013-01-26 00:05:00,
2013-01-25 19:15:00,19.6,15.3,30.12,SW,219,1.0,1.0,83,0.00,,,0.00,Wunderground v.1.15,2013-01-26 00:15:00,
2013-01-25 19:20:00,19.7,15.6,30.12,SW,223,0.0,0.0,84,0.00,,,0.00,Wunderground v.1.15,2013-01-26 00:20:00,
2013-01-25 19:30:00,19.6,15.6,30.12,SW,215,0.0,0.0,84,0.00,,,0.00,Wunderground v.1.15,2013-01-26 00:30:00,
2013-01-25 19:35:00,19.6,15.6,30.12,SW,219,0.0,0.0,84,0.00,,,0.00,Wunderground v.1.15,2013-01-26 00:35:00,
2013-01-25 19:45:00,19.5,16.0,30.12,SW,221,0.0,0.0,86,0.00,,,0.00,Wunderground v.1.15,2013-01-26 00:45:00,
2013-01-25 19:50:00,19.4,16.2,30.12,SW,217,0.0,1.0,87,0.00,,,0.00,Wunderground v.1.15,2013-01-26 00:50:00,
2013-01-25 20:00:00,19.3,16.1,30.12,SW,217,0.0,1.0,87,0.00,,,0.00,Wunderground v.1.15,2013-01-26 01:00:00,
2013-01-25 20:05:00,19.3,16.3,30.12,SW,218,0.0,1.0,88,0.00,,,0.00,Wunderground v.1.15,2013-01-26 01:05:00,
2013-01-25 20:15:00,19.2,16.2,30.12,WSW,239,0.0,0.0,88,0.00,,,0.00,Wunderground v.1.15,2013-01-26 01:15:00,
2013-01-25 20:25:00,19.2,16.5,30.13,SW,228,0.0,0.0,89,0.00,,,0.00,Wunderground v.1.15,2013-01-26 01:25:00,
2013-01-25 20:35:00,19.1,16.4,30.13,SW,228,0.0,0.0,89,0.00,,,0.00,Wunderground v.1.15,2013-01-26 01:35:00,
2013-01-25 20:45:00,19.1,16.4,30.12,SSW,207,0.0,0.0,89,0.00,,,0.00,Wunderground v.1.15,2013-01-26 01:45:00,
2013-01-25 20:50:00,19.1,16.4,30.13,SW,226,0.0,0.0,89,0.00,,,0.00,Wunderground v.1.15,2013-01-26 01:50:00,
2013-01-25 21:00:00,19.2,16.5,30.12,SSW,207,0.0,1.0,89,0.00,,,0.00,Wunderground v.1.15,2013-01-26 02:00:00,
2013-01-25 21:10:00,19.2,16.5,30.13,SW,230,0.0,0.0,89,0.00,,,0.00,Wunderground v.1.15,2013-01-26 02:10:00,
2013-01-25 21:20:00,19.2,16.5,30.13,SW,230,0.0,0.0,89,0.00,,,0.00,Wunderground v.1.15,2013-01-26 02:20:00,
2013-01-25 21:30:00,19.3,16.6,30.13,SSW,210,0.0,0.0,89,0.00,,,0.00,Wunderground v.1.15,2013-01-26 02:30:00,
2013-01-25 21:35:00,19.3,16.6,30.13,SW,217,0.0,0.0,89,0.00,,,0.00,Wunderground v.1.15,2013-01-26 02:35:00,
2013-01-25 21:45:00,19.3,16.8,30.13,SW,224,0.0,0.0,90,0.00,,,0.00,Wunderground v.1.15,2013-01-26 02:45:00,
2013-01-25 21:50:00,19.3,16.6,30.13,SW,219,0.0,0.0,89,0.00,,,0.00,Wunderground v.1.15,2013-01-26 02:50:00,
2013-01-25 22:00:00,19.4,16.9,30.13,SSW,208,0.0,1.0,90,0.00,,,0.00,Wunderground v.1.15,2013-01-26 03:00:00,
2013-01-25 22:10:00,19.4,16.9,30.13,SW,219,0.0,0.0,90,0.00,,,0.00,Wunderground v.1.15,2013-01-26 03:10:00,
2013-01-25 22:20:00,19.5,17.0,30.13,SSE,148,0.0,0.0,90,0.00,,,0.00,Wunderground v.1.15,2013-01-26 03:20:00,
2013-01-25 22:25:00,19.6,17.1,30.13,SW,227,0.0,0.0,90,0.00,,,0.00,Wunderground v.1.15,2013-01-26 03:25:00,
2013-01-25 22:35:00,19.7,17.2,30.13,SW,223,0.0,0.0,90,0.00,,,0.00,Wunderground v.1.15,2013-01-26 03:35:00,
2013-01-25 22:40:00,19.7,17.2,30.13,SW,233,0.0,0.0,90,0.00,,,0.00,Wunderground v.1.15,2013-01-26 03:40:00,
2013-01-25 22:50:00,19.9,17.4,30.12,SW,231,0.0,0.0,90,0.00,,,0.00,Wunderground v.1.15,2013-01-26 03:50:00,
2013-01-25 22:55:00,20.0,17.5,30.12,SSW,203,0.0,1.0,90,0.00,,,0.00,Wunderground v.1.15,2013-01-26 03:55:00,
2013-01-25 23:00:00,20.0,17.5,30.12,SW,223,0.0,0.0,90,0.00,,,0.00,Wunderground v.1.15,2013-01-26 04:00:00,
2013-01-25 23:10:00,20.1,17.6,30.13,SSW,207,0.0,0.0,90,0.00,,,0.00,Wunderground v.1.15,2013-01-26 04:10:00,
2013-01-25 23:20:00,20.3,17.8,30.13,SW,214,0.0,0.0,90,0.00,,,0.00,Wunderground v.1.15,2013-01-26 04:20:00,
2013-01-25 23:25:00,20.4,17.9,30.13,SW,217,0.0,0.0,90,0.00,,,0.00,Wunderground v.1.15,2013-01-26 04:25:00,
2013-01-25 23:35:00,20.4,17.9,30.13,South,171,0.0,0.0,90,0.00,,,0.00,Wunderground v.1.15,2013-01-26 04:35:00,
2013-01-25 23:40:00,20.4,17.9,30.13,SW,217,0.0,0.0,90,0.00,,,0.00,Wunderground v.1.15,2013-01-26 04:40:00,
2013-01-25 23:50:00,20.5,18.0,30.13,WSW,240,0.0,0.0,90,0.00,,,0.00,Wunderground v.1.15,2013-01-26 04:50:00,
2013-01-25 23:55:00,20.5,18.0,30.13,SW,215,0.0,0.0,90,0.00,,,0.00,Wunderground v.1.15,2013-01-26 04:55:00,